Back to catalog

STARLINK-35970

AliveCommunicationsVLEO
NORAD 66618·PAYLOAD·🇺🇸 United States

Launched Nov 23, 2025 from Vandenberg Space Force Base

Loading…

Next Passes (next 24 hours)

TLE

FreshSource: CelesTrak SupGP

Epoch: Sep 14, 2026, 14:47 UTC

1 66618C 25271B   26257.61645833 -.00014617  00000+0 -43208-3 0  2579
2 66618  53.1599 340.9891 0001223  80.4856 217.1479 15.34382274    15

Track STARLINK-35970 in real time with AllMySat

Download on the App Store